547  
ASUS44 KHUN 190510  
RWRHUN  
 
WEATHER ROUNDUP FOR THE TENNESSEE VALLEY  
NATIONAL WEATHER SERVICE HUNTSVILLE AL  
1200 AM CDT SAT AUG 19 2017  
 
ALZ001>004-190600-  
NORTHWEST ALABAMA  
 
CITY SKY/WX TMP DP RH WIND PRES REMARKS
 
COURTLAND HCN N/A 72 N/A N/A CALM N/A  
RUSSELLVILLE N/A 68 N/A N/A MISG N/A  
SHOALS AIRPORT FAIR 70 67 90 CALM 30.01S  
SHOALS TVA RES N/A 70 N/A N/A MISG N/A  

 
 
ALZ005>007-016-190600-  
NORTH CENTRAL ALABAMA  
 
CITY SKY/WX TMP DP RH WIND PRES REMARKS
 
CULLMAN AG STN N/A 70 N/A N/A CALM N/A  
DECATUR AP FAIR 68 68 100 CALM 30.00F  
HUNTSVILLE AP FAIR 71 70 96 CALM 29.99F  
MERIDIANVILLE FAIR 68 66 94 CALM 30.01S  
REDSTONE ARSN FAIR 70 67 92 CALM 29.98F  
VINEMONT AP FAIR N/A N/A N/A CALM 30.04F  

 
 
ALZ008>010-190600-  
NORTHEAST ALABAMA  
 
CITY SKY/WX TMP DP RH WIND PRES REMARKS
 
ALBERTVILLE FAIR 72 72 100 CALM 30.00F  
FORT PAYNE FAIR 64 63 94 CALM 30.01S  
SCOTTSBORO AP FAIR 68 68 100 CALM 30.00F  
SCOTTSBORO HCN N/A 68 N/A N/A MISG N/A  

 
 
TNZ076-096-097-190600-  
SOUTHEASTERN MIDDLE TENNESSEE  
 
CITY SKY/WX TMP DP RH WIND PRES REMARKS
 
TULLAHOMA CLEAR 66 64 94 CALM 30.03S  
WINCHESTER CLEAR 68 66 94 CALM 30.02F  

 
   
..SURROUNDING SITES
 
 
 
CITY SKY/WX TMP DP RH WIND PRES REMARKS
 
ATLANTA FAIR 75 66 73 NW3 30.00S  
ANNISTON FAIR 72 70 93 CALM 30.00S  
BIRMINGHAM FAIR 74 70 87 N3 30.03S  
CHATTANOOGA FAIR 74 68 81 CALM 30.00S  
DALTON NOT AVBL  
GADSDEN FAIR 70 69 97 CALM 30.00F  
GOLDEN TRNGL FAIR 75 70 83 CALM N/A  
HALEYVILLE FAIR 69 69 100 CALM 30.03F  
JACKSON TN FAIR 69 69 100 SW3 29.98F  
MEMPHIS FAIR 79 70 74 S3 29.97F  
NASHVILLE FAIR 72 67 84 S3 30.00S  
OXFORD MS FAIR 70 68 94 CALM 30.01S  
ROME FAIR 71 69 93 CALM 29.99S  
SAVANNAH CLOUDY 68 66 94 CALM 29.98F  
SELMER CLEAR 66 64 94 CALM 29.99S  
TUPELO FAIR 75 70 84 CALM 29.98F  
TUSCALOOSA FAIR 75 75 100 CALM 29.98F  

 
   
..GULF COAST WEATHER
 
 
 
CITY SKY/WX TMP DP RH WIND PRES REMARKS
 
GULFPORT FAIR 79 77 94 CALM 30.00R  
PASCAGOULA FAIR 75 73 93 CALM 30.00S  
MOBILE FAIR 76 73 91 W5 30.02R  
GULF SHORES FAIR 75 75 100 CALM 30.00R  
PENSACOLA FAIR 76 73 91 NW5 29.99S  
DESTIN FAIR 83 73 72 N6 29.99R  
PANAMA CITY FAIR 82 79 91 CALM 29.99F HX 92  
APPALACHICOLA FAIR 82 80 94 CALM 29.97F HX 94  

 
 
 
 
CLICK HERE TO GO TO PREVIOUS BULLETINS.

The Nexlab AL Page
The Nexlab TN Page Main Text Page